Location: Eindhoven
(51.4416°N, 5.4697°E)
Time: 09:44:25
(UTC+01:00)

Tiros 1 - Pass Details

Date: 20 November 2019
Orbit: 630 x 664 km, 48.4° (Epoch: 05 December)

Event Time Altitude Azimuth Distance (km) Brightness Sun altitude
Rises 20:07:27 0° 278° (W) 2,928 11.7 -31.4°
Reaches altitude 10° 20:10:12 10° 263° (W) 2,022 10.5 -31.8°
Enters shadow 20:12:52 20° 229° (SW) 1,467 9.3 -32.2°
